Weather History for Pittsfield, IL

Change the Weather History Date:

Friday, April 19, 2013

  Actual Average (KUIN) Record (KUIN)
Temperature  
Mean Temperature 42 °F 55 °F  
Max Temperature 48 °F 65 °F 85 °F (1925)
Min Temperature 36 °F 44 °F 26 °F (1983)
Degree Days  
Heating Degree Days 24 11  
Month to date heating degree days 267  
Since 1 July heating degree days 5327  
Cooling Degree Days 0 1  
Month to date cooling degree days 6  
Year to date cooling degree days 8  
Moisture  
Dew Point 29 °F    
Average Humidity 62    
Maximum Humidity 73    
Minimum Humidity 46    
Precipitation  
Precipitation 0.00 in 0.13 in 1.79 in (1972)
Month to date precipitation 2.24  
Year to date precipitation 8.10  
Sea Level Pressure  
Sea Level Pressure 29.86 in    
Wind  
Wind Speed 16 mph (West)    
Max Wind Speed 25 mph    
Max Gust Speed 36 mph    
Visibility 10 miles    
Events      
T = Trace of Precipitation, MM = Missing Value Source: NWS Daily Summary

Daily Weather History Graph

Daily Weather History Graph

Search for Another Location

Airport:

Trip Planner

Search our weather history database for the weather conditions in past years. The results will help you decide how hot, cold, wet, or windy it might be!

Date:

Astronomy

Apr. 19, 2013 Rise Set
Actual Time 6:19 AM CDT 7:45 PM CDT
Civil Twilight 5:51 AM CDT 8:13 PM CDT
Nautical Twilight 5:17 AM CDT 8:47 PM CDT
Astronomical Twilight 4:41 AM CDT 9:23 PM CDT
Moon 1:31 PM CDT (4/19) 2:33 AM CDT (4/19)
Length of Visible Light 14h 22m
Length of Day
13h 25m
First Quarter, 62% of the Moon is Illuminated
Apr 19
First Quarter
Apr 25
Full
May 2
Last Quarter
May 9
New
May 17
First Quarter

Hourly Weather History & Observations

Time (CDT) Temp. Windchill Dew Point Humidity Pressure Visibility Wind Dir Wind Speed Gust Speed Precip Events Conditions
12:15 AM 39.7 °F 31.5 °F 31.1 °F 71% 29.75 in 10.0 mi West 15.0 mph 26.5 mph N/A   Overcast
12:35 AM 39.6 °F 30.6 °F 30.6 °F 70% 29.75 in 10.0 mi West 17.3 mph 26.5 mph N/A   Overcast
12:55 AM 39.4 °F 31.1 °F 30.4 °F 70% 29.75 in 10.0 mi West 15.0 mph 27.6 mph N/A   Overcast
1:15 AM 39.4 °F 29.8 °F 30.0 °F 69% 29.75 in 10.0 mi West 19.6 mph 25.3 mph N/A   Overcast
1:35 AM 39.2 °F 30.8 °F 30.0 °F 70% 29.74 in 10.0 mi West 15.0 mph 19.6 mph N/A   Overcast
1:55 AM 39.2 °F 31.2 °F 29.8 °F 69% 29.74 in 10.0 mi West 13.8 mph 23.0 mph N/A   Overcast
2:15 AM 39.2 °F 30.5 °F 29.8 °F 69% 29.73 in 10.0 mi West 16.1 mph 28.8 mph N/A   Overcast
2:35 AM 39.2 °F 30.5 °F 29.3 °F 68% 29.73 in 10.0 mi West 16.1 mph 23.0 mph N/A   Overcast
2:55 AM 38.8 °F 29.1 °F 29.5 °F 69% 29.73 in 10.0 mi West 19.6 mph 29.9 mph N/A   Overcast
3:15 AM 38.7 °F 29.5 °F 29.8 °F 71% 29.73 in 10.0 mi West 17.3 mph 27.6 mph N/A   Overcast
3:35 AM 38.5 °F 29.6 °F 29.7 °F 71% 29.74 in 10.0 mi West 16.1 mph 24.2 mph N/A   Overcast
3:55 AM 38.5 °F 29.9 °F 28.8 °F 68% 29.74 in 10.0 mi West 15.0 mph 24.2 mph N/A   Overcast
4:15 AM 38.5 °F 28.1 °F 29.1 °F 69% 29.74 in 10.0 mi West 21.9 mph 31.1 mph N/A   Overcast
4:35 AM 38.3 °F 27.1 °F 29.3 °F 70% 29.75 in 10.0 mi West 25.3 mph 35.7 mph N/A   Overcast
4:55 AM 38.3 °F 28.7 °F 29.8 °F 72% 29.75 in 10.0 mi West 18.4 mph 23.0 mph N/A   Overcast
5:15 AM 37.8 °F 27.4 °F 29.5 °F 72% 29.75 in 10.0 mi West 20.7 mph 29.9 mph N/A   Overcast
5:35 AM 37.4 °F 26.6 °F 28.4 °F 70% 29.76 in 10.0 mi West 21.9 mph 27.6 mph N/A   Overcast
5:55 AM 37.0 °F 27.0 °F 28.0 °F 70% 29.76 in 10.0 mi West 18.4 mph 29.9 mph N/A   Overcast
6:15 AM 37.2 °F 27.0 °F 27.3 °F 67% 29.77 in 10.0 mi West 19.6 mph 26.5 mph N/A   Overcast
6:35 AM 37.0 °F 26.7 °F 28.2 °F 70% 29.78 in 10.0 mi WSW 19.6 mph 24.2 mph N/A   Overcast
6:55 AM 37.0 °F 27.0 °F 27.9 °F 69% 29.78 in 10.0 mi WSW 18.4 mph 24.2 mph N/A   Overcast
7:15 AM 37.0 °F 26.7 °F 27.3 °F 68% 29.79 in 10.0 mi West 19.6 mph 29.9 mph N/A   Overcast
7:35 AM 36.9 °F 26.8 °F 28.2 °F 71% 29.80 in 10.0 mi WSW 18.4 mph 24.2 mph N/A   Overcast
7:55 AM 36.9 °F 29.1 °F 28.4 °F 71% 29.80 in 10.0 mi WSW 11.5 mph 21.9 mph N/A   Overcast
8:15 AM 37.2 °F 27.6 °F 28.2 °F 70% 29.81 in 10.0 mi WSW 17.3 mph 25.3 mph N/A   Overcast
8:35 AM 37.4 °F 28.2 °F 29.1 °F 72% 29.81 in 10.0 mi West 16.1 mph 24.2 mph N/A   Overcast
8:55 AM 37.4 °F 28.5 °F 29.3 °F 73% 29.81 in 10.0 mi WSW 15.0 mph 25.3 mph N/A   Overcast
9:15 AM 38.3 °F 29.3 °F 29.7 °F 71% 29.81 in 10.0 mi WSW 16.1 mph 25.3 mph N/A   Overcast
9:35 AM 39.2 °F 29.8 °F 30.2 °F 70% 29.81 in 10.0 mi WSW 18.4 mph 29.9 mph N/A   Overcast
9:55 AM 38.7 °F 28.6 °F 29.8 °F 71% 29.81 in 10.0 mi West 20.7 mph 24.2 mph N/A   Overcast
10:15 AM 38.8 °F 28.5 °F 28.6 °F 67% 29.81 in 10.0 mi WSW 21.9 mph 27.6 mph N/A   Overcast
10:35 AM 39.6 °F 29.7 °F 28.8 °F 65% 29.82 in 10.0 mi West 20.7 mph 26.5 mph N/A   Overcast
10:55 AM 38.7 °F 28.8 °F 29.5 °F 70% 29.83 in 10.0 mi West 19.6 mph 29.9 mph N/A   Overcast
11:15 AM 41.0 °F 31.9 °F 29.3 °F 63% 29.83 in 10.0 mi West 19.6 mph 28.8 mph N/A   Overcast
11:35 AM 40.6 °F 31.7 °F 29.3 °F 64% 29.83 in 10.0 mi West 18.4 mph 29.9 mph N/A   Overcast
11:55 AM 41.0 °F 33.1 °F 29.1 °F 63% 29.84 in 10.0 mi WSW 15.0 mph 25.3 mph N/A   Overcast
12:15 PM 41.4 °F 32.4 °F 28.0 °F 59% 29.84 in 10.0 mi West 19.6 mph 28.8 mph N/A   Overcast
12:35 PM 41.9 °F 33.4 °F 28.9 °F 60% 29.85 in 10.0 mi West 18.4 mph 26.5 mph N/A   Overcast
12:55 PM 42.3 °F 34.4 °F 28.4 °F 58% 29.85 in 10.0 mi West 16.1 mph 23.0 mph N/A   Overcast
1:15 PM 42.8 °F 34.3 °F 28.4 °F 57% 29.86 in 10.0 mi West 19.6 mph 26.5 mph N/A   Overcast
1:35 PM 43.2 °F 35.0 °F 28.2 °F 56% 29.86 in 10.0 mi West 18.4 mph 28.8 mph N/A   Overcast
1:55 PM 44.1 °F 36.5 °F 28.6 °F 55% 29.86 in 10.0 mi West 17.3 mph 21.9 mph N/A   Overcast
2:15 PM 44.8 °F 37.4 °F 28.0 °F 52% 29.86 in 10.0 mi West 17.3 mph 26.5 mph N/A   Overcast
2:35 PM 45.7 °F 37.6 °F 27.9 °F 50% 29.86 in 10.0 mi West 21.9 mph 33.4 mph N/A   Overcast
2:55 PM 47.1 °F - 29.5 °F 50% 29.86 in 10.0 mi West 13.8 mph 25.3 mph N/A   Overcast
3:15 PM 47.7 °F - 28.2 °F 47% 29.86 in 10.0 mi West 20.7 mph 29.9 mph N/A   Mostly Cloudy
3:35 PM 47.3 °F - 28.0 °F 47% 29.87 in 10.0 mi West 18.4 mph 29.9 mph N/A   Mostly Cloudy
3:55 PM 47.3 °F - 27.5 °F 46% 29.87 in 10.0 mi West 20.7 mph 29.9 mph N/A   Mostly Cloudy
4:15 PM 47.5 °F - 27.7 °F 46% 29.88 in 10.0 mi West 24.2 mph 29.9 mph N/A   Mostly Cloudy
4:35 PM 47.3 °F - 27.9 °F 47% 29.89 in 10.0 mi West 20.7 mph 34.5 mph N/A   Mostly Cloudy
4:55 PM 46.4 °F 39.0 °F 27.9 °F 48% 29.91 in 10.0 mi West 19.6 mph 31.1 mph N/A   Mostly Cloudy
5:15 PM 46.6 °F - 29.5 °F 51% 29.91 in 10.0 mi West 11.5 mph 19.6 mph N/A   Mostly Cloudy
5:35 PM 46.8 °F - 27.3 °F 47% 29.93 in 10.0 mi West 13.8 mph 26.5 mph N/A   Mostly Cloudy
5:55 PM 46.2 °F 39.8 °F 28.4 °F 50% 29.93 in 10.0 mi West 15.0 mph 25.3 mph N/A   Mostly Cloudy
6:15 PM 46.2 °F 39.3 °F 27.5 °F 48% 29.94 in 10.0 mi West 17.3 mph 27.6 mph N/A   Mostly Cloudy
6:35 PM 45.9 °F 39.7 °F 27.1 °F 48% 29.94 in 10.0 mi West 13.8 mph 26.5 mph N/A   Scattered Clouds
6:55 PM 45.7 °F 41.0 °F 27.7 °F 49% 29.95 in 10.0 mi West 9.2 mph 19.6 mph N/A   Mostly Cloudy
7:15 PM 45.5 °F 41.3 °F 28.2 °F 51% 29.96 in 10.0 mi West 8.1 mph - N/A   Scattered Clouds
7:35 PM 45.3 °F 39.0 °F 27.3 °F 49% 29.97 in 10.0 mi West 13.8 mph 21.9 mph N/A   Scattered Clouds
7:55 PM 45.0 °F 39.7 °F 26.4 °F 48% 29.98 in 10.0 mi West 10.4 mph 19.6 mph N/A   Scattered Clouds
8:15 PM 43.9 °F 39.9 °F 27.5 °F 53% 29.99 in 10.0 mi West 6.9 mph - N/A   Scattered Clouds
8:35 PM 42.8 °F 39.3 °F 27.9 °F 56% 30.00 in 10.0 mi West 5.8 mph - N/A   Scattered Clouds
8:55 PM 42.1 °F 40.2 °F 28.4 °F 58% 30.01 in 10.0 mi West 3.5 mph - N/A   Clear
9:15 PM 41.4 °F 39.4 °F 28.4 °F 60% 30.02 in 10.0 mi West 3.5 mph - N/A   Clear
9:35 PM 41.0 °F 39.0 °F 28.4 °F 61% 30.03 in 10.0 mi West 3.5 mph - N/A   Scattered Clouds
9:55 PM 41.2 °F 38.2 °F 28.4 °F 60% 30.03 in 10.0 mi West 4.6 mph - N/A   Scattered Clouds
10:15 PM 41.0 °F 38.0 °F 28.4 °F 61% 30.04 in 10.0 mi West 4.6 mph - N/A   Clear
10:35 PM 40.1 °F 36.9 °F 28.4 °F 63% 30.05 in 10.0 mi West 4.6 mph - N/A   Clear
10:55 PM 39.6 °F 36.3 °F 28.4 °F 64% 30.05 in 10.0 mi West 4.6 mph - N/A   Clear
11:15 PM 39.4 °F 35.2 °F 27.9 °F 63% 30.05 in 10.0 mi WNW 5.8 mph - N/A   Clear
11:35 PM 38.8 °F 35.4 °F 27.9 °F 65% 30.06 in 10.0 mi WNW 4.6 mph - N/A   Clear
11:55 PM 36.7 °F 32.0 °F 28.4 °F 72% 30.07 in 10.0 mi NW 5.8 mph - N/A   Clear